STARLINK-1012

Last updated on Thu Dec 12 2019 00:02:03 GMT+0000 (Coordinated Universal Time)

1 44718U 19074F 19345.58335648 .00059607 00000-0 42626-3 0 9999 2 44718 53.0090 21.4941 0001995 5.4559 55.6217 15.73186057 4739

Satellite not in orbit